This is the latest recevied weather packets stored in our database for station/object N5KJT. If no packets are shown the sender has not sent any weather packets the latest 10 day(s).
| Time | Temp. | Humidity | Pressure | Rain* | Wind** | Luminosity | Snow |
|---|---|---|---|---|---|---|---|
| 1787943916 | 32.22° C | 30% | 1027.8 hPa | 0 mm | - | 1194 W/m² | - |
| 1787943616 | 32.22° C | 31% | 1028 hPa | 0 mm | - | 1181 W/m² | - |
| 1787943315 | 31.67° C | 31% | 1028.1 hPa | 0 mm | - | 1181 W/m² | - |
| 1787943015 | 31.67° C | 31% | 1028.1 hPa | 0 mm | - | 1181 W/m² | - |
| 1787942716 | 31.67° C | 31% | 1028.2 hPa | 0 mm | - | 1176 W/m² | - |
| 1787942415 | 31.67° C | 31% | 1028.4 hPa | 0 mm | - | 1174 W/m² | - |
| 1787942115 | 31.11° C | 31% | 1028.5 hPa | 0 mm | - | 1167 W/m² | - |
| 1787941816 | 31.11° C | 32% | 1028.7 hPa | 0 mm | - | 1161 W/m² | - |
| 1787941515 | 31.11° C | 33% | 1028.8 hPa | 0 mm | - | 1153 W/m² | - |
| 1787941216 | 31.11° C | 33% | 1028.8 hPa | 0 mm | - | 1077 W/m² | - |
| 1787940916 | 30.56° C | 34% | 1028.9 hPa | 0 mm | - | 760 W/m² | - |
| 1787940616 | 30.56° C | 34% | 1028.9 hPa | 0 mm | - | 742 W/m² | - |
| 1787940315 | 30° C | 35% | 1029 hPa | 0 mm | - | 835 W/m² | - |
| 1787940015 | 30° C | 35% | 1029.1 hPa | 0 mm | - | 872 W/m² | - |
| 1787939715 | 30° C | 35% | 1029.2 hPa | 0 mm | - | 957 W/m² | - |
| 1787939415 | 30° C | 35% | 1029.2 hPa | 0 mm | - | 1050 W/m² | - |
| 1787939116 | 30° C | 35% | 1029.3 hPa | 0 mm | - | 1088 W/m² | - |
| 1787938815 | 29.44° C | 34% | 1029.4 hPa | 0 mm | - | 1080 W/m² | - |
| 1787938516 | 29.44° C | 35% | 1029.4 hPa | 0 mm | - | 1071 W/m² | - |
| 1787938215 | 29.44° C | 36% | 1029.6 hPa | 0 mm | - | 1059 W/m² | - |
| 1787937916 | 28.89° C | 36% | 1029.6 hPa | 0 mm | - | 1047 W/m² | - |
| 1787937615 | 28.89° C | 37% | 1029.7 hPa | 0 mm | - | 1033 W/m² | - |
| 1787937315 | 28.89° C | 37% | 1029.6 hPa | 0 mm | - | 1023 W/m² | - |
| 1787937015 | 28.33° C | 38% | 1029.6 hPa | 0 mm | - | 1010 W/m² | - |
| 1787936715 | 28.33° C | 38% | 1029.6 hPa | 0 mm | - | 985 W/m² | - |
* Rain latest hour (hover to see other rain measurements)
** Current wind speed in m/s (hover to see current wind gust speed)